GFSNIL_con_3kmhel_057.txt.gz
Helicity
216 200 175 167 164 172 170 176 190 205 235 200 125 116 124 147 145 127 150 145 214 279
186 190 183 203 188 163 152 148 154 160 178 205 188 165 161 160 131 131 122 134 135 172
135 134 134 130 134 132 137 124 122 129 146 172 217 227 191 187 130 124 106 123 135 206
116 107 96 88 93 97 90 83 79 80 109 125 163 199 167 141 141 144 165 185 205 206
85 86 90 95 96 97 93 76 62 58 79 97 112 132 127 164 160 150 193 216 190 178
77 70 86 90 106 122 108 87 94 88 91 102 122 144 143 182 137 157 213 209 181 146
73 74 98 99 111 127 104 110 116 121 111 111 131 131 96 160 179 196 222 225 180 144
68 86 94 114 132 137 108 106 120 120 102 75 112 95 75 130 151 207 202 150 164 160
71 76 89 99 108 89 103 107 99 91 95 78 70 91 94 67 52 107 109 101 150 180
77 83 85 84 80 82 86 72 93 101 71 51 23 43 36 44 41 53 63 79 92 108
63 60 44 35 34 27 15 21 18 13 -4 -6 -5 17 27 44 28 38 44 46 54 69
14 1 -7 7 3 -3 -1 -2 -25 -32 -10 5 -3 24 31 35 42 58 68 77 86 96
-12 -8 1 8 4 -8 -11 -4 -20 -22 -15 24 17 44 53 59 56 65 70 85 99 111
-4 7 4 -2 -28 -25 -14 1 -4 10 14 18 24 32 56 70 53 54 55 63 69 75

GFSNIL_con_3kmhel_060.txt.gz
Helicity
167 145 144 151 143 144 150 157 170 180 188 191 177 147 140 130 127 130 132 130 136 160
159 167 156 157 138 132 130 126 123 125 145 171 174 174 169 151 162 174 148 116 95 115
138 137 131 123 125 116 113 113 105 101 102 113 132 150 156 161 168 154 130 122 135 137
126 120 111 99 92 91 90 100 100 103 102 109 118 125 124 126 134 131 153 167 157 160
97 92 86 87 91 96 101 101 99 97 107 107 106 116 131 141 150 152 179 164 155 183
82 68 74 83 93 112 112 101 90 87 101 103 101 107 126 148 116 117 164 166 144 170
74 70 83 94 107 131 145 131 126 132 139 144 124 115 120 128 83 115 163 189 134 156
68 77 88 104 109 151 170 150 133 146 153 130 103 84 99 126 113 108 141 135 96 88
68 75 86 100 128 160 157 131 131 143 113 96 77 120 105 70 59 60 57 70 82 101
68 84 99 118 133 132 101 89 99 90 81 81 44 42 37 30 11 20 33 34 46 65
74 81 95 90 62 43 36 29 34 43 36 27 23 38 36 36 15 32 39 48 64 77
41 33 36 38 31 26 19 18 33 25 36 40 23 32 33 30 27 35 42 52 58 75
15 25 34 21 23 19 23 25 20 24 25 41 36 41 45 38 27 36 38 44 61 77
24 21 17 13 9 15 16 11 21 31 27 25 26 29 42 44 32 35 43 55 63 68

GFSNIL_con_3kmhel_063.txt.gz
Helicity
138 123 126 136 128 131 142 146 161 168 175 184 189 199 206 198 204 193 188 186 176 169
123 131 124 133 129 127 138 141 150 149 154 165 173 173 170 184 193 188 184 189 185 167
115 125 128 129 136 131 127 125 118 118 121 132 140 144 139 153 166 160 159 148 153 161
119 127 128 125 122 116 108 113 112 109 110 126 138 139 129 129 135 130 131 143 133 160
123 122 122 115 109 103 109 111 109 107 121 138 136 144 144 138 135 136 154 154 146 161
125 118 110 105 101 111 123 130 136 129 142 143 142 137 126 143 159 166 163 126 146 150
114 98 93 98 96 113 137 142 123 118 132 120 123 129 140 147 151 153 145 152 148 117
94 87 84 95 96 112 141 134 121 124 127 130 163 145 133 131 145 111 100 126 121 132
72 74 81 86 92 125 137 133 134 148 137 122 101 133 124 79 61 54 48 39 42 51
71 75 84 93 114 128 136 127 120 123 108 102 84 83 77 69 30 40 43 48 53 61
69 81 92 108 106 85 72 78 71 65 54 50 48 70 66 65 40 44 47 53 58 66
66 73 73 60 38 31 33 45 47 38 49 57 51 58 54 46 39 45 47 49 57 61
28 24 37 30 33 33 33 34 30 46 41 51 44 47 51 41 24 33 36 42 59 75
27 33 29 32 33 30 27 23 32 39 36 37 32 28 42 44 25 25 31 37 46 57

GFSNIL_con_3kmhel_066.txt.gz
Helicity
137 125 128 132 125 124 119 117 134 143 156 173 180 187 194 198 223 230 230 225 209 186
118 119 115 122 117 112 123 128 139 144 152 161 171 175 185 202 235 252 252 230 215 207
110 119 123 127 139 142 143 146 147 146 142 138 144 155 164 175 197 203 201 192 188 189
104 113 121 125 128 130 133 142 140 131 128 134 146 158 162 172 163 162 159 161 158 167
104 119 131 134 135 131 133 129 127 124 126 131 144 163 174 171 170 156 162 159 177 189
104 113 122 125 132 132 126 127 128 123 129 133 140 153 157 151 154 173 189 192 190 180
102 104 121 130 118 113 115 121 120 114 118 136 151 159 153 156 158 161 170 193 176 149
94 109 111 114 102 95 126 140 127 114 123 136 143 126 130 134 135 131 114 109 106 111
89 107 106 99 88 110 131 137 136 138 140 134 116 121 116 87 60 54 56 67 75 73
85 103 94 89 103 112 122 128 136 122 105 93 66 72 64 56 26 32 38 52 57 61
99 92 87 94 99 102 103 96 80 77 56 43 37 51 48 46 27 39 39 42 45 52
112 97 94 95 80 73 58 49 47 33 45 49 37 50 53 51 44 45 43 43 42 51
92 84 81 58 42 31 39 47 46 57 50 50 50 52 60 55 44 51 45 39 47 60
62 59 64 63 44 56 56 53 49 51 50 50 48 42 54 59 43 40 43 46 43 43

GFSNIL_con_3kmhel_072.txt.gz
Helicity
148 154 166 171 166 163 162 157 154 150 147 146 140 133 128 123 140 168 192 216 219 223
160 154 151 154 152 150 149 146 141 139 138 141 138 135 136 140 143 158 180 201 221 224
149 147 140 135 135 134 132 130 130 134 139 145 146 145 143 143 153 160 168 167 165 166
130 122 117 113 118 124 124 126 124 125 128 135 141 140 143 155 158 161 169 171 168 159
98 94 97 104 109 111 110 113 116 114 119 121 127 131 135 144 151 152 148 151 155 154
83 83 89 102 113 116 118 121 120 126 123 120 122 121 131 138 145 147 146 142 138 138
72 77 89 89 91 101 116 123 129 128 134 124 120 116 119 124 124 119 118 120 113 112
73 80 82 74 82 97 100 113 118 123 118 107 101 108 102 98 97 96 96 94 73 72
79 72 72 76 87 97 99 105 109 109 109 111 116 112 98 73 72 62 55 58 58 58
91 76 68 81 97 113 109 98 102 103 106 122 111 94 73 62 53 55 55 51 49 54
97 87 93 95 104 114 109 108 101 102 105 91 78 55 47 50 48 46 44 44 44 53
91 101 119 121 121 119 111 96 101 88 76 57 38 32 33 26 31 39 38 39 42 44
108 121 119 122 128 116 95 88 77 43 32 28 34 27 27 27 31 31 38 41 39 49
114 119 110 125 116 79 43 28 18 17 20 25 30 28 26 28 31 35 43 40 42 40

GFSNIL_con_3kmhel_075.txt.gz
Helicity
135 129 135 147 151 149 161 162 149 140 138 137 132 128 124 120 117 148 141 178 192 193
130 124 135 151 163 172 163 161 146 134 134 131 126 127 128 127 141 127 135 156 168 178
152 154 152 149 151 153 142 130 127 123 121 122 118 121 123 125 126 122 138 145 156 160
157 150 143 143 140 136 129 131 127 123 116 117 120 121 119 131 132 132 130 151 161 165
143 134 125 121 121 120 121 115 125 124 124 125 131 134 135 131 143 143 138 140 158 156
99 91 91 94 100 106 111 115 113 121 127 126 132 127 125 124 133 152 159 167 169 164
98 89 91 94 87 98 107 113 118 124 133 131 132 126 122 133 143 154 159 156 148 155
108 99 101 93 93 94 104 115 121 117 120 124 126 132 128 136 133 124 125 126 112 101
88 84 88 86 79 91 101 111 122 127 135 133 120 127 138 115 126 111 96 81 59 51
91 92 100 86 86 97 105 110 122 121 116 115 117 118 114 116 112 90 67 57 43 51
112 115 114 102 105 129 133 125 116 112 109 116 112 108 95 72 63 62 50 43 42 50
114 119 104 96 117 144 152 153 156 134 113 113 95 72 68 56 39 52 49 48 48 52
132 117 101 110 147 168 171 162 128 118 102 81 64 47 41 47 47 39 49 43 46 50
129 108 114 152 165 168 145 129 110 96 73 47 37 38 36 41 46 49 50 51 45 54

GFSNIL_con_3kmhel_078.txt.gz
Helicity
241 232 230 213 189 192 199 191 162 147 146 150 151 147 142 132 129 137 152 147 143 151
235 194 179 188 178 180 164 160 164 151 143 139 133 130 129 129 144 159 129 131 136 142
195 203 197 193 171 174 171 156 158 158 151 143 139 134 131 134 141 140 157 143 154 150
169 158 179 170 149 130 136 150 152 154 149 144 140 141 140 142 146 151 148 147 157 160
166 198 166 157 156 155 148 128 135 136 139 148 148 147 153 140 150 158 154 142 172 171
201 178 174 164 156 141 141 139 123 135 146 153 154 160 169 176 181 199 205 202 184 184
141 132 133 135 136 144 137 137 137 131 148 154 161 166 174 188 192 189 184 200 185 167
146 146 148 125 115 108 107 115 125 116 121 128 148 161 155 155 160 161 166 148 135 123
140 133 129 114 100 95 98 103 107 114 122 138 150 149 150 158 165 148 130 125 99 74
126 122 123 120 109 90 82 100 113 122 119 141 137 129 128 147 137 119 102 71 65 49
136 151 162 136 104 93 98 106 128 130 145 171 131 122 114 126 115 87 63 54 55 53
160 181 178 137 119 114 127 135 144 168 171 152 126 100 102 87 66 64 58 52 63 80
174 188 173 134 119 122 128 150 181 165 153 116 104 75 61 54 50 49 51 45 50 61
185 193 172 146 136 138 149 155 142 134 118 92 76 53 39 40 55 59 53 52 49 46

GFSNIL_con_3kmhel_084.txt.gz
Helicity
181 236 217 218 232 215 199 164 142 142 145 137 129 126 137 145 147 155 148 151 166 163
252 255 251 234 211 206 191 164 149 138 111 109 132 138 155 161 159 176 168 153 154 152
269 294 232 217 237 203 199 183 141 119 174 160 173 159 169 143 144 157 153 157 155 149
258 339 335 298 326 149 177 229 227 164 154 111 95 145 127 132 139 135 136 155 158 157
239 274 273 298 262 241 183 172 196 201 134 129 131 140 149 137 137 136 150 153 169 153
215 208 225 245 240 223 221 203 172 159 154 143 133 135 136 135 152 169 183 187 169 157
171 165 176 186 171 170 156 140 135 131 120 112 113 125 126 145 170 174 173 181 190 162
138 155 164 159 143 135 121 110 104 109 104 101 102 109 119 138 149 164 172 165 161 169
135 135 129 127 116 113 110 102 98 92 93 99 104 107 115 130 158 161 156 162 178 162
133 136 127 120 117 100 90 95 86 82 85 90 101 102 115 134 164 157 141 134 108 101
150 141 134 126 104 100 104 90 87 81 79 95 96 110 139 144 160 149 124 109 93 86
161 156 142 125 111 109 108 100 90 91 81 94 100 126 131 150 145 132 115 85 60 52
163 165 146 134 127 121 123 103 103 99 96 89 110 124 122 126 121 109 94 68 48 32
156 154 151 157 157 129 116 114 112 112 111 108 111 108 90 83 98 87 75 56 44 41

GFSNIL_con_3kmhel_087.txt.gz
Helicity
98 136 170 182 232 273 263 181 155 159 156 126 120 120 119 110 86 127 118 114 124 148
107 106 150 158 198 239 220 190 168 151 117 132 141 120 105 72 94 83 108 117 125 142
146 175 193 229 253 252 228 186 168 121 106 59 68 62 58 74 51 106 117 127 135 148
157 188 227 273 252 227 237 198 135 94 104 83 121 121 88 96 97 102 123 138 143 155
149 178 209 225 257 267 286 267 247 194 178 137 155 135 121 106 113 118 123 127 141 146
151 164 170 175 192 210 232 212 168 152 181 154 129 113 104 99 110 133 147 156 159 159
135 143 165 186 193 213 208 191 186 159 138 118 102 97 99 111 125 139 148 156 162 160
136 163 176 179 171 166 163 153 132 118 107 100 93 87 88 92 107 124 139 160 151 146
142 159 161 161 154 143 125 112 107 94 86 80 75 72 76 92 112 135 139 137 134 148
136 142 142 146 136 119 105 105 90 80 75 64 60 56 75 87 138 145 142 138 135 126
146 144 142 141 125 120 113 87 82 76 75 79 70 58 81 141 157 156 147 132 119 114
154 156 155 138 124 122 106 91 87 92 87 83 71 62 83 133 138 138 130 119 91 75
171 168 151 135 135 135 120 103 104 93 84 71 72 58 75 124 139 131 121 110 82 47
171 160 154 163 164 143 130 119 104 100 93 81 71 77 68 97 118 115 106 97 76 40

GFSNIL_con_3kmhel_090.txt.gz
Helicity
63 74 107 140 179 206 189 169 162 133 184 154 122 112 98 95 90 67 72 45 93 120
111 95 84 116 147 173 177 210 240 187 175 149 152 144 93 71 56 14 54 73 137 85
114 110 121 134 153 189 240 251 195 172 153 163 168 89 41 49 25 90 74 78 78 93
100 107 119 143 194 247 271 257 229 240 224 193 128 74 68 105 103 84 83 92 98 114
129 132 144 160 176 188 211 233 239 197 156 85 103 110 127 102 98 104 99 95 99 100
125 142 150 167 181 205 211 213 195 162 160 163 149 123 125 112 107 103 106 114 125 134
111 123 146 175 190 192 184 186 181 192 181 151 134 149 116 92 89 95 103 113 123 127
133 149 161 174 189 197 192 180 172 163 160 159 141 96 79 73 73 88 109 115 123 118
131 141 146 165 178 184 182 164 153 157 148 121 90 70 59 46 61 86 102 118 135 139
118 131 138 158 163 159 153 153 139 120 103 91 75 56 52 40 70 106 126 136 139 136
136 141 150 151 140 144 140 118 113 100 89 78 65 60 55 70 108 131 142 136 126 122
154 158 163 153 148 146 141 125 109 97 81 80 77 66 60 79 102 132 131 129 125 114
177 173 169 165 163 166 151 132 116 96 86 64 72 68 64 90 103 129 132 123 106 82
186 173 169 183 192 173 164 147 118 91 90 82 88 70 43 62 108 123 117 107 108 91

GFSNIL_con_3kmhel_093.txt.gz
Helicity
84 92 90 109 156 181 197 145 189 217 234 170 176 169 172 136 120 119 135 77 44 71
93 75 74 90 127 155 177 174 173 183 208 202 161 167 204 168 150 114 86 39 35 116
123 133 131 132 139 163 200 205 204 217 227 232 241 216 183 153 124 77 66 50 98 102
112 122 112 118 126 161 209 253 268 291 278 265 222 180 166 135 83 93 97 111 110 103
118 120 117 111 116 141 194 243 261 246 246 226 185 143 110 68 83 122 116 108 102 99
121 121 129 141 155 170 206 229 246 239 221 201 171 153 118 122 135 117 110 107 110 125
96 118 146 185 198 189 194 204 212 208 196 180 167 143 150 136 111 109 108 109 117 123
105 124 145 165 180 195 199 205 204 199 187 165 154 146 124 101 84 86 96 103 109 121
118 139 143 154 169 184 194 195 180 166 153 141 140 112 103 85 71 61 75 106 128 142
111 125 133 154 166 170 173 185 174 165 140 130 117 88 74 55 45 49 80 115 132 141
122 123 136 141 140 162 169 158 149 137 129 122 105 83 70 68 68 66 93 118 134 133
135 142 153 146 146 163 170 152 148 138 126 111 102 71 62 77 65 58 85 114 128 123
124 156 161 164 173 189 173 162 152 142 114 92 90 56 60 76 72 58 86 129 127 97
93 128 154 179 204 186 176 172 154 134 121 107 98 86 72 78 76 66 93 122 129 115

GFSNIL_con_3kmhel_096.txt.gz
Helicity
46 58 58 93 117 155 152 165 192 195 179 152 131 183 132 116 119 142 131 113 107 114
72 66 63 62 71 108 122 145 182 142 149 166 167 163 172 145 147 149 141 121 100 84
124 122 110 96 96 106 125 154 203 183 159 186 194 200 202 185 153 138 126 114 101 98
120 126 129 127 122 117 140 170 201 200 217 219 225 217 192 149 143 143 143 145 100 106
106 111 104 102 102 112 127 152 205 245 266 267 254 215 169 146 143 134 119 84 98 115
85 97 107 121 132 136 148 180 215 241 249 248 220 182 164 154 149 130 100 119 111 118
72 82 90 101 111 131 154 179 200 209 220 215 207 195 178 165 155 128 127 126 120 121
93 103 114 119 129 153 172 193 194 197 203 201 192 185 168 159 138 116 116 109 111 119
67 83 98 116 143 163 175 187 191 185 182 182 176 154 138 138 118 106 92 90 103 120
69 78 88 106 119 129 144 159 166 171 170 158 159 139 120 102 107 96 88 94 103 125
69 88 110 121 121 132 144 148 159 164 160 161 154 115 99 92 96 83 61 60 79 97
51 82 112 125 130 141 153 148 142 143 142 138 135 100 90 88 86 70 55 60 75 105
56 62 92 110 134 157 156 178 167 156 135 122 116 99 84 94 100 78 82 75 86 95
49 52 69 110 149 159 157 166 161 145 136 122 112 107 83 83 101 96 88 82 78 90

GFSNIL_con_3kmhel_102.txt.gz
Helicity
113 113 102 48 75 35 105 4 68 119 99 115 75 146 108 180 97 4 32 82 102 131
26 42 38 53 47 68 20 32 111 119 169 128 125 142 133 124 92 102 90 100 88 79
87 74 58 73 72 88 76 93 138 140 130 148 179 201 199 167 149 141 117 97 91 95
106 111 101 91 83 96 99 91 99 131 162 181 205 220 218 210 146 166 162 159 144 134
68 74 87 100 112 95 102 109 109 121 143 152 173 192 197 215 204 188 191 182 168 154
69 77 81 85 91 93 82 92 107 128 156 187 209 231 230 215 210 183 195 181 160 139
60 69 75 78 84 90 100 99 102 122 156 180 202 199 196 204 199 201 188 172 157 155
58 66 73 83 85 82 85 93 99 118 140 163 178 189 213 207 204 202 208 189 179 183
91 82 80 79 83 93 98 99 109 123 147 169 188 183 172 195 207 203 206 203 192 206
46 51 54 60 74 88 102 119 125 131 134 135 156 149 159 163 203 204 196 194 194 197
54 53 44 41 47 58 84 97 118 129 138 148 153 133 142 169 224 216 201 191 192 196
53 64 74 80 67 84 89 98 119 146 136 152 151 133 133 166 217 223 204 204 191 178
41 45 62 71 75 78 103 109 117 123 142 144 170 146 143 176 227 215 206 188 174 131
107 88 63 59 74 79 77 89 107 111 121 138 160 170 120 146 217 207 213 212 211 193

GFSNIL_con_3kmhel_108.txt.gz
Helicity
155 50 49 41 38 59 95 77 104 66 88 94 97 131 164 207 200 219 206 215 227 268
142 69 111 74 58 23 -31 32 88 64 83 86 110 104 144 196 154 165 202 189 188 219
-5 -35 -17 -40 -64 -38 18 39 30 32 22 46 55 49 62 73 105 113 124 134 106 43
45 43 42 29 21 12 14 28 31 41 37 44 14 5 14 39 82 103 75 125 129 68
67 63 60 72 51 5 8 56 58 59 61 54 62 82 71 66 101 109 100 133 145 171
39 47 49 50 56 59 68 70 79 89 90 94 93 88 92 99 113 140 156 166 157 162
62 56 54 57 64 67 70 74 71 63 57 57 61 73 91 114 123 128 135 159 166 162
78 82 88 94 96 89 83 83 87 92 97 99 103 108 104 107 116 129 136 141 152 164
51 52 56 66 75 78 91 98 105 117 113 111 117 116 111 116 130 131 139 152 153 150
50 63 77 76 75 84 96 97 110 115 118 123 132 141 137 133 157 163 167 173 186 198
49 65 78 86 89 102 115 128 130 134 141 142 129 127 139 149 171 173 169 169 166 182
43 28 16 24 45 54 63 84 93 101 107 135 151 130 124 134 147 165 159 154 153 162
38 53 60 71 59 41 41 64 78 88 127 154 172 176 156 162 146 148 158 161 161 108
37 47 75 90 90 79 75 47 35 40 55 74 112 160 164 155 152 133 131 135 139 147

GFSNIL_con_3kmhel_111.txt.gz
Helicity
276 134 158 176 133 136 163 193 108 72 66 103 113 112 122 94 99 136 171 148 153 213
14 51 36 53 94 57 54 40 73 70 81 45 83 91 103 134 127 155 179 121 122 201
76 66 59 40 37 13 10 4 18 43 66 48 46 68 79 91 147 137 122 146 165 202
29 37 30 27 29 31 41 47 35 35 43 44 35 61 62 72 53 71 58 121 149 136
65 66 74 66 62 51 39 39 26 21 41 55 66 101 98 85 76 71 77 86 123 134
78 47 75 78 77 72 70 65 74 76 82 87 85 82 85 83 88 95 100 106 103 103
92 87 82 73 75 73 77 80 86 90 90 94 105 107 116 124 123 117 115 112 114 111
58 61 68 77 76 78 84 86 84 94 104 103 105 116 131 136 137 135 128 120 118 129
26 32 36 48 55 55 69 77 77 85 85 101 100 116 121 119 128 153 175 184 190 185
16 24 26 28 33 44 56 59 80 93 98 105 114 128 146 154 144 128 141 148 152 165
15 29 35 41 54 57 50 68 68 81 99 110 129 146 174 195 187 182 178 181 179 174
8 1 8 10 21 23 41 58 78 90 92 106 109 118 128 143 135 151 173 169 160 167
5 -8 1 20 40 43 51 61 67 69 78 80 114 100 104 124 133 137 155 146 144 125
33 25 18 25 30 44 41 38 57 74 93 106 98 84 75 150 162 131 139 154 141 124

GFSNIL_con_3kmhel_114.txt.gz
Helicity
90 152 127 169 129 226 264 237 165 123 87 119 128 78 58 71 88 108 110 100 100 140
137 149 87 137 115 99 186 105 108 169 142 109 121 132 111 92 112 112 79 102 111 133
80 53 41 42 60 91 67 37 31 49 85 104 77 83 54 81 93 87 118 157 151 175
171 201 176 148 154 103 79 77 71 60 52 43 39 55 50 40 19 26 34 97 90 74
59 80 94 87 67 46 57 50 42 49 53 55 68 76 77 75 72 74 90 87 73 79
126 114 103 97 92 89 73 75 74 72 71 72 76 86 96 99 107 112 112 110 111 114
68 67 68 64 65 65 61 62 61 54 61 72 78 84 95 106 110 111 115 122 128 131
56 47 49 45 42 48 59 54 48 57 71 83 94 100 111 114 119 125 128 131 131 130
7 8 9 16 17 12 23 37 41 51 46 59 55 76 91 87 79 95 111 124 134 154
19 19 21 17 26 28 28 37 55 60 59 71 82 111 130 136 117 131 144 150 157 163
-7 -3 3 1 9 15 14 25 26 48 60 69 96 142 146 152 123 118 130 149 160 137
-1 15 28 44 39 27 30 34 46 54 65 71 82 134 154 148 102 86 59 59 93 130
9 2 -7 -11 -5 0 10 6 9 16 26 39 26 37 81 93 73 94 84 52 66 136
-5 -4 -1 0 0 8 9 11 32 44 42 53 82 68 93 97 99 137 140 127 118 131

GFSNIL_con_3kmhel_117.txt.gz
Helicity
76 103 128 123 122 106 118 165 150 130 104 153 171 148 103 141 95 69 45 76 93 117
81 78 133 101 127 152 190 228 173 131 115 109 112 77 100 89 111 151 119 96 78 109
173 282 194 193 211 183 127 80 115 99 74 89 113 91 95 110 109 118 99 93 72 81
212 233 244 232 175 198 195 173 144 101 184 147 141 168 96 94 101 82 63 85 41 -8
152 172 208 174 172 138 86 76 67 71 49 76 110 162 135 143 175 132 89 79 115 128
117 99 89 86 72 76 69 77 73 72 80 79 82 94 94 100 101 117 113 111 105 102
67 57 54 49 59 59 62 69 75 74 76 80 82 96 94 94 105 115 113 118 122 132
41 49 53 61 59 52 53 49 48 60 69 79 78 89 102 99 103 116 129 138 142 145
37 51 50 46 51 56 60 57 61 77 82 97 86 136 136 111 96 100 105 113 122 124
14 17 19 19 33 47 47 43 50 47 54 68 74 123 118 122 83 85 90 95 101 108
27 27 33 36 38 40 47 57 58 60 51 48 43 90 109 111 74 85 98 84 91 81
17 27 37 50 51 49 46 43 55 54 66 58 56 91 83 64 29 12 -2 -23 -29 -7
20 35 39 36 40 26 20 7 -5 -12 -16 5 21 43 56 48 30 60 68 70 51 35
29 23 19 8 0 -6 -7 -3 6 5 0 17 46 62 98 115 89 103 95 95 103 100